STARLINK-34331, 64204

Orbit data source: Space-Track

STARLINK-34331, 64204 is a payload satellite owned by SpaceX/Seattle (US) in LEO that was launched on Sat, 31 May 2025 UTC via an FALCON 9 launch vehicle from the Air Force Western Test Range (AFWTR). Payload-class satellites include a variety of spacecraft equipped with specific instruments for various scientific and technological missions. These include communications satellites like Starlink; space stations such as the ISS; scientific satellites like the Hubble; Earth observation satellites from companies like Planet Labs, Umbra, and HawkEye 360; GPS; miniature CubeSats for education and research; and military/defense satellites.

Loading next visibility...
Identifier
64204, 2025-117B
Orbit
LEO
Last TLE update
5 hours ago
Origin
Manufacturer
SpaceX/Seattle
Mission
Operational Commercial Communications
Bus & Motor
STARLINK V2MO, Unknown motor
Mass
575 kg wet, ~530 kg dry
Launch date (UTC)
2025-05-31 (2 months ago)
Launch vehicle
FALCON 9
Launch site
Air Force Western Test Range (AFWTR)
Object type
Payload
Rocket body
Debris
Shape & HBR
Box + 1 Pan, 14.5 m
Radar Cross Section
41.120 m², Large (>1 m²)

Expand to show TLE details & history

TLE from 5 hours ago
0 STARLINK-34331
1 64204U 25117B   25211.54894909  .00065737  00000-0  16383-2 0  9992
2 64204  53.1586 352.9445 0001012  71.9490 288.1625 15.39637931  9460
Epoch: 2025-07-30T13:10Z
TLE epoch observation values (Epoch: 2025-07-30T13:10:29.201Z)
Latitude
-0.00002°
Longitude
-153.10377°
Altitude
447.867 km
Speed
7.645 km/s
True Right ascension
23h 31m 46s
True Declination
0° 00' 00"
Sunlit
Object was in full shadow at epoch
Visualization orbit readout
Latitude
20.2005°
Longitude
-138.13266°
Altitude
447.12 km
Speed
7.647 km/s
Apparent Right ascension
22h 24m 59s
Apparent Declination
-10° 51' 01"
Sunlit
Object is in full shadow
Visualization observer readout
Local Sidereal Time
07:31:31
Azimuth
294.948° NW
Elevation
-41.943°
Doppler factor
1
Orbital elements
Apogee altitude
448.128 km
Perigee altitude
446.746 km
Semi-major axis
6,825.574 km
Eccentricity
0.0001
Inclination
53.1586°
RAAN
352.9445°
Arg. of periapsis
71.949°
True anomaly
288.15148°
Mean anomaly
288.1625°
Eccentric anomaly
288.15699°
Mean motion
3.84888 °/min
Orbital period
93.53 mins
BSTAR
0.0016383
Loading maneuver chart data...
Loading SW <> Apogee altitude chart data...
Loading historical data...
Loading historical data...
Loading historical data...
Loading historical data...
Loading historical data...
Loading historical data...
Loading historical data...
|